Location: Pradons
(44.4746°N, 4.3578°E)
Time: 19:45:44
(UTC+00:00)

Cosmos 1703 - Pass Details

Date: 11 August 2020
Orbit: 523 x 541 km, 82.5° (Epoch: 01 October)

Event Time Altitude Azimuth Distance (km) Brightness Sun altitude
Rises 01:50:32 0° 9° (N) 2,710 7.9 -24.1°
Reaches altitude 10° 01:53:32 10° 33° (NNE) 1,810 7.0 -23.9°
Maximum altitude 01:55:51 15° 69° (ENE) 1,519 6.2 -23.6°
Drops below altitude 10° 01:58:08 10° 104° (ESE) 1,798 6.2 -23.4°
Enters shadow 02:01:05 - 129° (SE) 2,677 6.8 -23.1°
